Location: Observatory
(52.1446°N, 0.4624°W)
Time: 15:11:59
(UTC+00:00)

ISS - Pass Details

Date: 09 November 2018
Orbit: 401 x 408 km, 51.6° (Epoch: 20 November)

Event Time Altitude Azimuth Distance (km) Brightness Sun altitude
Exits shadow 05:48:07 22° 261° (W) 937 -2.6 -12.9°
Maximum altitude 05:49:47 40° 204° (SSW) 609 -3.1 -12.6°
Drops below altitude 10° 05:52:53 10° 133° (SE) 1,463 0.0 -12.1°
Sets 05:55:01 0° 125° (SE) 2,322 1.4 -11.8°
